Home > Weather > Ahlen > Past weeks

Flag for Germany Weather for the Past 2 Weeks in Ahlen, North Rhine-Westphalia, Germany

Now
48 °F

Passing clouds.


Feels Like: 48 °F
Forecast: 40 / 64 °F
Wind: 2 mph from North

Location: Dortmund / Wickede

Current Time: May 4, 2016 at 10:49:00 AM

Latest Report: May 4, 2016 at 9:50 AM


Visibility: N/A

Pressure: 30.42 "Hg

Humidity: 58%

Dew Point: 34 °F

Location of AhlenLocation

Historic Weather in Ahlen — Graph

°F

Ahlen Temperature Yesterday

Maximum temperature yesterday: 57 °F (at 3:20 PM)
Minimum temperature yesterday: 45 °F (at 8:20 AM)
Average temperature yesterday: 51 °F

High & Low Weather Summary for the Past Weeks

 TemperatureHumidityPressure
High66 °F (May 2, 4:50 PM)93% (Apr 20, 7:20 AM)30.48 "Hg (Apr 20, 7:20 AM)
Low32 °F (Apr 20, 5:50 AM)32% (May 2, 3:20 PM)29.45 "Hg (Apr 26, 1:50 PM)
Average46 °F65%30.03 "Hg
* Reported Apr 19 9:50 AM — May 4 9:20 AM, Ahlen, Weather by CustomWeather, © 2016

Note: Actual official high and low records may vary slightly from our data, if they occured in-between our weather recording intervals... More about our weather records

Advertising

Ahlen Weather History for the Previous 24 Hours

Scroll right to see more
 ConditionsComfort  
Time TempWeatherWind HumidityBarometerVisibility
9:20 AM
Wed, May 4
46 °FSunny.2 mph66%30.42 "Hg10 mi
8:20 AM43 °FSunny.3 mph76%30.42 "Hg10 mi
7:50 AM39 °FSunny.6 mph81%30.39 "Hg10 mi
7:20 AM37 °FSunny.6 mph87%30.39 "Hg10 mi
6:50 AM36 °FClear.5 mph87%30.39 "Hg10 mi
6:20 AM36 °FClear.2 mph81%30.39 "Hg10 mi
5:50 AM37 °FClear.No wind87%30.39 "Hg10 mi
5:20 AM37 °FClear.1 mph87%30.36 "Hg10 mi
10:20 PM
Tue, May 3
45 °FClear.6 mph61%30.30 "Hg10 mi
9:50 PM45 °FSunny.8 mph61%30.30 "Hg10 mi
9:20 PM46 °FSunny.8 mph57%30.30 "Hg10 mi
8:50 PM48 °FSunny.9 mph54%30.27 "Hg10 mi
8:20 PM52 °FSunny.10 mph44%30.27 "Hg10 mi
7:50 PM52 °FSunny.14 mph44%30.24 "Hg10 mi
7:20 PM54 °FSunny.10 mph44%30.24 "Hg10 mi
6:50 PM54 °FPassing clouds.14 mph44%30.24 "HgN/A
6:20 PM54 °FSunny.18 mph41%30.24 "Hg10 mi
5:50 PM55 °FSunny.16 mph36%30.21 "Hg10 mi
5:20 PM55 °FPassing clouds.16 mph38%30.21 "HgN/A
4:50 PM55 °FPassing clouds.16 mph38%30.21 "HgN/A
4:20 PM55 °FSunny.16 mph41%30.21 "Hg10 mi
3:50 PM55 °FPassing clouds.15 mph38%30.21 "HgN/A
3:20 PM57 °FPassing clouds.15 mph44%30.18 "HgN/A
2:50 PM54 °FScattered clouds.15 mph47%30.18 "HgN/A
2:20 PM55 °FScattered clouds.13 mph47%30.18 "HgN/A
1:20 PM52 °FScattered showers. Scattered clouds.9 mph58%30.18 "HgN/A
12:50 PM52 °FScattered clouds.13 mph62%30.18 "HgN/A
12:20 PM54 °FScattered clouds.12 mph58%30.15 "HgN/A
11:50 AM54 °FScattered clouds.12 mph67%30.15 "HgN/A
11:20 AM52 °FScattered clouds.12 mph62%30.15 "HgN/A
10:50 AM50 °FScattered clouds.9 mph71%30.15 "HgN/A
10:20 AM48 °FScattered clouds.9 mph76%30.15 "HgN/A
Weather by CustomWeather, © 2016

See weather overviewHow to use our weather pages